Location: Ca�n Batista
(41.4099°N, 1.7752°E)
Time: 14:20:21
(UTC+00:00)

Cosmos 1727 Rocket - Pass Details

Date: 03 March 2021
Orbit: 962 x 996 km, 82.9° (Epoch: 21 April)

Event Time Altitude Azimuth Distance (km) Brightness Sun altitude
Rises 20:28:48 0° 349° (N) 3,656 7.4 -30.9°
Reaches altitude 10° 20:31:19 10° 347° (NNW) 2,707 6.7 -31.3°
Maximum altitude 20:37:25 65° 267° (W) 1,058 4.2 -32.4°
Enters shadow 20:37:41 64° 252° (WSW) 1,063 4.2 -32.4°
